Time,TemperatureF,DewpointF,PressureIn,WindDirection,WindDirectionDegrees,WindSpeedMPH,WindSpeedGustMPH,Humidity,HourlyPrecipIn,Conditions,Clouds,dailyrainin,SoftwareType,DateUTC
2013-01-27 00:03:00,26.4,19.9,30.24,NE,45,0.0,0.0,76,0.00,,---,0.00,VWS V13.01,2013-01-27 08:03:00,
2013-01-27 00:08:00,27.0,20.7,30.24,NE,45,0.0,0.0,77,0.00,,---,0.00,VWS V13.01,2013-01-27 08:08:00,
2013-01-27 00:13:00,27.3,20.8,30.24,NE,45,0.0,0.0,76,0.00,,---,0.00,VWS V13.01,2013-01-27 08:13:00,
2013-01-27 00:18:00,27.1,20.6,30.24,NE,45,0.0,0.0,76,0.00,,---,0.00,VWS V13.01,2013-01-27 08:18:00,
2013-01-27 00:23:00,26.6,20.1,30.24,NE,45,0.0,0.0,76,0.00,,---,0.00,VWS V13.01,2013-01-27 08:23:00,
2013-01-27 00:28:00,26.6,20.4,30.24,NE,45,0.0,0.0,77,0.00,,---,0.00,VWS V13.01,2013-01-27 08:28:00,
2013-01-27 00:33:00,26.2,20.0,30.24,NE,45,0.0,0.0,77,0.00,,---,0.00,VWS V13.01,2013-01-27 08:33:00,
2013-01-27 00:38:00,25.7,19.8,30.24,NE,45,0.0,0.0,78,0.00,,---,0.00,VWS V13.01,2013-01-27 08:38:00,
2013-01-27 00:43:00,25.3,19.8,30.24,NE,45,0.0,0.0,79,0.00,,---,0.00,VWS V13.01,2013-01-27 08:43:00,
2013-01-27 00:48:00,25.3,20.0,30.24,NE,45,0.0,0.0,80,0.00,,---,0.00,VWS V13.01,2013-01-27 08:48:00,
2013-01-27 00:53:00,25.0,19.7,30.24,NE,45,0.0,0.0,80,0.00,,---,0.00,VWS V13.01,2013-01-27 08:53:00,
2013-01-27 00:58:00,25.0,20.0,30.24,NE,45,0.0,0.0,81,0.00,,---,0.00,VWS V13.01,2013-01-27 08:58:00,
2013-01-27 01:03:00,24.8,20.4,30.24,NE,45,0.0,0.0,83,0.00,,---,0.00,VWS V13.01,2013-01-27 09:03:00,
2013-01-27 01:08:00,24.4,20.0,30.24,NE,45,3.1,3.1,83,0.00,,---,0.00,VWS V13.01,2013-01-27 09:08:00,
2013-01-27 01:13:00,24.1,20.0,30.24,NE,45,0.0,0.0,84,0.00,,---,0.00,VWS V13.01,2013-01-27 09:13:00,
2013-01-27 01:18:00,24.1,20.0,30.24,NE,45,0.0,0.0,84,0.00,,---,0.00,VWS V13.01,2013-01-27 09:18:00,
2013-01-27 01:23:00,23.9,20.1,30.24,NE,45,0.0,0.0,85,0.00,,---,0.00,VWS V13.01,2013-01-27 09:23:00,
2013-01-27 01:28:00,23.5,19.7,30.24,NE,45,0.0,0.0,85,0.00,,---,0.00,VWS V13.01,2013-01-27 09:28:00,
2013-01-27 01:33:00,23.4,19.8,30.24,NE,45,0.0,0.0,86,0.00,,---,0.00,VWS V13.01,2013-01-27 09:33:00,
2013-01-27 01:38:00,23.4,20.1,30.24,NE,45,0.0,0.0,87,0.00,,---,0.00,VWS V13.01,2013-01-27 09:38:00,
2013-01-27 01:43:00,23.0,20.0,30.24,NE,45,0.0,0.0,88,0.00,,---,0.00,VWS V13.01,2013-01-27 09:43:00,
2013-01-27 01:48:00,22.8,20.1,30.24,NE,45,0.0,0.0,89,0.00,,---,0.00,VWS V13.01,2013-01-27 09:48:00,
2013-01-27 01:53:00,23.2,20.4,30.24,NE,45,2.7,3.6,89,0.00,,---,0.00,VWS V13.01,2013-01-27 09:53:00,
2013-01-27 01:58:00,23.0,20.5,30.24,NE,45,0.0,0.0,90,0.00,,---,0.00,VWS V13.01,2013-01-27 09:58:00,
2013-01-27 02:03:00,22.8,20.6,30.24,NE,45,0.0,0.0,91,0.00,,---,0.00,VWS V13.01,2013-01-27 10:03:00,
2013-01-27 02:08:00,22.6,20.4,30.24,NE,45,0.0,0.0,91,0.00,,---,0.00,VWS V13.01,2013-01-27 10:08:00,
2013-01-27 02:13:00,22.6,20.4,30.24,NE,45,0.0,0.0,91,0.00,,---,0.00,VWS V13.01,2013-01-27 10:13:00,
2013-01-27 02:18:00,22.3,20.1,30.24,NE,45,0.0,0.0,91,0.00,,---,0.00,VWS V13.01,2013-01-27 10:18:00,
2013-01-27 02:23:00,21.9,19.7,30.24,NE,45,0.0,0.0,91,0.00,,---,0.00,VWS V13.01,2013-01-27 10:23:00,
2013-01-27 02:28:00,22.1,20.1,30.24,NE,45,0.0,0.0,92,0.00,,---,0.00,VWS V13.01,2013-01-27 10:28:00,
2013-01-27 02:33:00,22.3,20.3,30.24,NE,45,0.0,0.0,92,0.00,,---,0.00,VWS V13.01,2013-01-27 10:33:00,
2013-01-27 02:38:00,21.7,20.0,30.24,NE,45,0.0,0.0,93,0.00,,---,0.00,VWS V13.01,2013-01-27 10:38:00,
2013-01-27 02:43:00,21.9,20.5,30.24,NE,45,0.0,0.0,94,0.00,,---,0.00,VWS V13.01,2013-01-27 10:43:00,
2013-01-27 02:48:00,21.9,20.5,30.24,NE,45,0.0,0.0,94,0.00,,---,0.00,VWS V13.01,2013-01-27 10:48:00,
2013-01-27 02:53:00,21.6,20.1,30.24,NE,45,0.0,0.0,94,0.00,,---,0.00,VWS V13.01,2013-01-27 10:53:00,
2013-01-27 02:58:00,21.9,20.7,30.24,NE,45,0.0,0.0,95,0.00,,---,0.00,VWS V13.01,2013-01-27 10:58:00,
2013-01-27 03:03:00,21.6,20.4,30.24,NNE,22,0.0,0.0,95,0.00,,---,0.00,VWS V13.01,2013-01-27 11:03:00,
2013-01-27 03:08:00,22.1,21.1,30.24,NNE,22,0.0,0.0,96,0.00,,---,0.00,VWS V13.01,2013-01-27 11:08:00,
2013-01-27 03:13:00,21.7,20.8,30.24,NNE,22,0.0,0.0,96,0.00,,---,0.00,VWS V13.01,2013-01-27 11:13:00,
2013-01-27 03:18:00,21.7,20.8,30.24,NNE,22,0.0,0.0,96,0.00,,---,0.00,VWS V13.01,2013-01-27 11:18:00,
2013-01-27 03:23:00,21.4,20.4,30.24,NNE,22,0.0,0.0,96,0.00,,---,0.00,VWS V13.01,2013-01-27 11:23:00,
2013-01-27 03:28:00,21.6,20.6,30.24,NNE,22,0.0,0.0,96,0.00,,---,0.00,VWS V13.01,2013-01-27 11:28:00,
2013-01-27 03:33:00,21.2,20.2,30.24,NNE,22,0.0,0.0,96,0.00,,---,0.00,VWS V13.01,2013-01-27 11:33:00,
2013-01-27 03:38:00,21.2,20.2,30.27,NNE,22,0.0,0.0,96,0.00,,---,0.00,VWS V13.01,2013-01-27 11:38:00,
2013-01-27 03:43:00,20.8,19.9,30.27,NNE,22,0.0,0.0,96,0.00,,---,0.00,VWS V13.01,2013-01-27 11:43:00,
2013-01-27 03:48:00,21.2,20.5,30.27,NNE,22,0.0,0.0,97,0.00,,---,0.00,VWS V13.01,2013-01-27 11:48:00,
2013-01-27 03:53:00,20.8,20.1,30.27,NNE,22,0.0,0.0,97,0.00,,---,0.00,VWS V13.01,2013-01-27 11:53:00,
2013-01-27 03:58:00,21.2,20.7,30.27,NNE,22,0.0,0.0,98,0.00,,---,0.00,VWS V13.01,2013-01-27 11:58:00,
2013-01-27 04:03:00,21.0,20.5,30.27,NNE,22,0.0,0.0,98,0.00,,---,0.00,VWS V13.01,2013-01-27 12:03:00,
2013-01-27 04:08:00,21.0,20.5,30.24,NNE,22,0.0,0.0,98,0.00,,---,0.00,VWS V13.01,2013-01-27 12:08:00,
2013-01-27 04:13:00,20.5,20.0,30.24,NNE,22,0.0,0.0,98,0.00,,---,0.00,VWS V13.01,2013-01-27 12:13:00,
2013-01-27 04:18:00,20.3,19.8,30.24,NNE,22,0.0,0.0,98,0.00,,---,0.00,VWS V13.01,2013-01-27 12:18:00,
2013-01-27 04:23:00,20.3,19.8,30.24,NNE,22,0.0,0.0,98,0.00,,---,0.00,VWS V13.01,2013-01-27 12:23:00,
2013-01-27 04:28:00,20.3,19.8,30.24,NNE,22,0.0,0.0,98,0.00,,---,0.00,VWS V13.01,2013-01-27 12:28:00,
2013-01-27 04:33:00,19.9,19.5,30.24,NNE,22,0.0,0.0,98,0.00,,---,0.00,VWS V13.01,2013-01-27 12:33:00,
2013-01-27 04:38:00,19.8,19.3,30.24,NNE,22,0.0,0.0,98,0.00,,---,0.00,VWS V13.01,2013-01-27 12:38:00,
2013-01-27 04:43:00,19.6,19.1,30.24,NNE,22,0.0,0.0,98,0.00,,---,0.00,VWS V13.01,2013-01-27 12:43:00,
2013-01-27 04:48:00,19.9,19.5,30.24,NNE,22,0.0,0.0,98,0.00,,---,0.00,VWS V13.01,2013-01-27 12:48:00,
2013-01-27 04:53:00,19.6,19.1,30.24,NNE,22,0.0,0.0,98,0.00,,---,0.00,VWS V13.01,2013-01-27 12:53:00,
2013-01-27 04:58:00,19.6,19.1,30.24,NNE,22,0.0,0.0,98,0.00,,---,0.00,VWS V13.01,2013-01-27 12:58:00,
2013-01-27 05:03:00,20.3,19.8,30.24,NNE,22,0.0,0.0,98,0.00,,---,0.00,VWS V13.01,2013-01-27 13:03:00,
2013-01-27 05:08:00,20.1,19.6,30.24,NNE,22,0.0,0.0,98,0.00,,---,0.00,VWS V13.01,2013-01-27 13:08:00,
2013-01-27 05:13:00,20.1,19.6,30.24,NNE,22,0.0,0.0,98,0.00,,---,0.00,VWS V13.01,2013-01-27 13:13:00,
2013-01-27 05:18:00,20.1,19.6,30.24,NNE,22,0.0,0.0,98,0.00,,---,0.00,VWS V13.01,2013-01-27 13:18:00,
2013-01-27 05:23:00,20.3,19.8,30.24,NNE,22,0.0,0.0,98,0.00,,---,0.00,VWS V13.01,2013-01-27 13:23:00,
2013-01-27 05:28:00,20.3,19.8,30.24,NNE,22,0.0,0.0,98,0.00,,---,0.00,VWS V13.01,2013-01-27 13:28:00,
2013-01-27 05:33:00,20.5,20.0,30.24,NNE,22,0.0,0.0,98,0.00,,---,0.00,VWS V13.01,2013-01-27 13:33:00,
2013-01-27 05:38:00,20.5,20.0,30.27,NNE,22,0.0,0.0,98,0.00,,---,0.00,VWS V13.01,2013-01-27 13:38:00,
2013-01-27 05:43:00,20.5,20.0,30.27,NNE,22,0.0,0.0,98,0.00,,---,0.00,VWS V13.01,2013-01-27 13:43:00,
2013-01-27 05:48:00,21.4,20.9,30.27,NNE,22,0.0,0.0,98,0.00,,---,0.00,VWS V13.01,2013-01-27 13:48:00,
2013-01-27 05:53:00,21.6,21.1,30.24,NNE,22,0.0,0.0,98,0.00,,---,0.00,VWS V13.01,2013-01-27 13:53:00,
2013-01-27 05:58:00,21.7,21.3,30.24,NNE,22,0.0,0.0,98,0.00,,---,0.00,VWS V13.01,2013-01-27 13:58:00,
2013-01-27 06:03:00,23.0,22.5,30.24,NNE,22,0.0,0.0,98,0.00,,---,0.00,VWS V13.01,2013-01-27 14:03:00,
2013-01-27 06:08:00,23.2,22.7,30.24,NNE,22,0.0,0.0,98,0.00,,---,0.00,VWS V13.01,2013-01-27 14:08:00,
2013-01-27 06:13:00,23.4,22.9,30.24,NNE,22,0.0,0.0,98,0.00,,---,0.00,VWS V13.01,2013-01-27 14:13:00,
2013-01-27 06:18:00,23.4,22.9,30.24,NNE,22,0.0,0.0,98,0.00,,---,0.00,VWS V13.01,2013-01-27 14:18:00,
2013-01-27 06:23:00,23.0,22.5,30.24,NNE,22,0.0,0.0,98,0.00,,---,0.00,VWS V13.01,2013-01-27 14:23:00,
2013-01-27 06:28:00,22.8,22.3,30.24,NNE,22,0.0,0.0,98,0.00,,---,0.00,VWS V13.01,2013-01-27 14:28:00,
2013-01-27 06:33:00,22.8,22.3,30.24,NNE,22,0.0,0.0,98,0.00,,---,0.00,VWS V13.01,2013-01-27 14:33:00,
2013-01-27 06:38:00,22.8,22.3,30.24,NNE,22,0.0,0.0,98,0.00,,---,0.00,VWS V13.01,2013-01-27 14:38:00,
2013-01-27 06:43:00,23.0,22.5,30.24,NNE,22,0.0,0.0,98,0.00,,---,0.00,VWS V13.01,2013-01-27 14:43:00,
2013-01-27 06:48:00,23.2,22.7,30.24,NNE,22,0.0,0.0,98,0.00,,---,0.00,VWS V13.01,2013-01-27 14:48:00,
2013-01-27 06:53:00,23.4,22.9,30.24,NNE,22,0.0,0.0,98,0.00,,---,0.00,VWS V13.01,2013-01-27 14:53:00,
2013-01-27 06:58:00,23.2,22.7,30.24,NNE,22,0.0,0.0,98,0.00,,---,0.00,VWS V13.01,2013-01-27 14:58:00,
2013-01-27 07:03:00,23.0,22.5,30.24,NNE,22,0.0,0.0,98,0.00,,---,0.00,VWS V13.01,2013-01-27 15:03:00,
2013-01-27 07:08:00,23.0,22.5,30.24,NNE,22,0.0,0.0,98,0.00,,---,0.00,VWS V13.01,2013-01-27 15:08:00,
2013-01-27 07:13:00,23.0,22.5,30.24,NNE,22,0.0,0.0,98,0.00,,---,0.00,VWS V13.01,2013-01-27 15:13:00,
2013-01-27 07:18:00,23.0,22.5,30.24,NNE,22,0.0,0.0,98,0.00,,---,0.00,VWS V13.01,2013-01-27 15:18:00,
2013-01-27 07:23:00,22.8,22.3,30.24,NNE,22,2.7,2.7,98,0.00,,---,0.00,VWS V13.01,2013-01-27 15:23:00,
2013-01-27 07:28:00,22.8,22.3,30.24,NNE,22,0.0,0.0,98,0.00,,---,0.00,VWS V13.01,2013-01-27 15:28:00,
2013-01-27 07:33:00,22.8,22.3,30.24,NNE,22,0.0,0.0,98,0.00,,---,0.00,VWS V13.01,2013-01-27 15:33:00,
2013-01-27 07:38:00,23.0,22.5,30.27,NNE,22,0.0,0.0,98,0.00,,---,0.00,VWS V13.01,2013-01-27 15:38:00,
2013-01-27 07:43:00,23.4,22.9,30.27,NNE,22,0.0,0.0,98,0.00,,---,0.00,VWS V13.01,2013-01-27 15:43:00,
2013-01-27 07:48:00,23.5,23.1,30.27,NNE,22,0.0,0.0,98,0.00,,---,0.00,VWS V13.01,2013-01-27 15:48:00,
2013-01-27 07:53:00,23.5,22.8,30.24,NNE,22,0.0,0.0,97,0.00,,---,0.00,VWS V13.01,2013-01-27 15:53:00,
2013-01-27 07:58:00,23.7,23.0,30.24,NNE,22,0.0,0.0,97,0.00,,---,0.00,VWS V13.01,2013-01-27 15:58:00,
2013-01-27 08:03:00,23.7,23.0,30.24,NNE,22,0.0,0.0,97,0.00,,---,0.00,VWS V13.01,2013-01-27 16:03:00,
2013-01-27 08:08:00,23.9,23.2,30.27,NNE,22,0.0,0.0,97,0.00,,---,0.00,VWS V13.01,2013-01-27 16:08:00,
2013-01-27 08:13:00,24.1,23.4,30.27,NNE,22,0.0,0.0,97,0.00,,---,0.00,VWS V13.01,2013-01-27 16:13:00,
2013-01-27 08:18:00,24.3,23.5,30.27,NNE,22,0.0,0.0,97,0.00,,---,0.00,VWS V13.01,2013-01-27 16:18:00,
2013-01-27 08:23:00,24.3,23.3,30.27,NNE,22,0.0,0.0,96,0.00,,---,0.00,VWS V13.01,2013-01-27 16:23:00,
2013-01-27 08:28:00,25.0,24.0,30.27,NNE,22,0.0,0.0,96,0.00,,---,0.00,VWS V13.01,2013-01-27 16:28:00,
2013-01-27 08:33:00,26.4,25.7,30.27,NNE,22,0.0,0.0,97,0.00,,---,0.00,VWS V13.01,2013-01-27 16:33:00,
2013-01-27 08:38:00,27.5,26.3,30.27,NNE,22,0.0,0.0,95,0.00,,---,0.00,VWS V13.01,2013-01-27 16:38:00,
2013-01-27 08:43:00,27.7,25.9,30.27,NNE,22,4.9,4.9,93,0.00,,---,0.00,VWS V13.01,2013-01-27 16:43:00,
2013-01-27 08:48:00,27.5,25.0,30.27,NE,45,0.0,0.0,90,0.00,,---,0.00,VWS V13.01,2013-01-27 16:48:00,
2013-01-27 08:53:00,28.6,25.5,30.27,NE,45,0.0,0.0,88,0.00,,---,0.00,VWS V13.01,2013-01-27 16:53:00,
2013-01-27 08:58:00,29.7,26.0,30.27,NE,45,0.0,0.0,86,0.00,,---,0.00,VWS V13.01,2013-01-27 16:58:00,
2013-01-27 09:03:00,30.7,25.3,30.27,NE,45,0.0,0.0,80,0.00,,---,0.00,VWS V13.01,2013-01-27 17:03:00,
2013-01-27 09:08:00,31.6,24.6,30.27,NE,45,0.0,0.0,75,0.00,,---,0.00,VWS V13.01,2013-01-27 17:08:00,
2013-01-27 09:13:00,31.3,23.3,30.27,NE,45,4.0,4.0,72,0.00,,---,0.00,VWS V13.01,2013-01-27 17:13:00,
2013-01-27 09:18:00,30.9,23.0,30.27,NE,45,0.0,0.0,72,0.00,,---,0.00,VWS V13.01,2013-01-27 17:18:00,
2013-01-27 09:23:00,31.3,23.3,30.27,NE,45,0.0,0.0,72,0.00,,---,0.00,VWS V13.01,2013-01-27 17:23:00,
2013-01-27 09:28:00,32.7,24.0,30.27,NE,45,0.0,0.0,70,0.00,,---,0.00,VWS V13.01,2013-01-27 17:28:00,
2013-01-27 09:33:00,34.0,23.8,30.27,NE,45,0.0,0.0,66,0.00,,---,0.00,VWS V13.01,2013-01-27 17:33:00,
2013-01-27 09:37:00,35.2,22.4,30.27,NE,45,0.0,0.0,59,0.00,,---,0.00,VWS V13.01,2013-01-27 17:37:00,
2013-01-27 09:42:00,36.3,20.4,30.27,NE,45,0.0,0.0,52,0.00,,---,0.00,VWS V13.01,2013-01-27 17:42:00,
2013-01-27 09:47:00,37.0,20.6,30.27,North,0,5.4,5.4,51,0.00,,---,0.00,VWS V13.01,2013-01-27 17:47:00,
2013-01-27 09:52:00,37.0,20.1,30.27,NW,315,0.0,3.1,50,0.00,,---,0.00,VWS V13.01,2013-01-27 17:52:00,
2013-01-27 09:57:00,37.2,19.4,30.27,NW,315,0.0,0.0,48,0.00,,---,0.00,VWS V13.01,2013-01-27 17:57:00,
2013-01-27 10:02:00,36.9,19.0,30.27,NW,315,0.0,2.7,48,0.00,,---,0.00,VWS V13.01,2013-01-27 18:02:00,
2013-01-27 10:07:00,36.1,18.4,30.27,NW,315,3.1,3.1,48,0.00,,---,0.00,VWS V13.01,2013-01-27 18:07:00,
2013-01-27 10:12:00,36.0,18.7,30.27,NW,315,0.0,0.0,49,0.00,,---,0.00,VWS V13.01,2013-01-27 18:12:00,
2013-01-27 10:17:00,37.4,20.0,30.27,NW,315,0.0,0.0,49,0.00,,---,0.00,VWS V13.01,2013-01-27 18:17:00,
2013-01-27 10:22:00,37.8,18.9,30.27,NW,315,2.7,3.1,46,0.00,,---,0.00,VWS V13.01,2013-01-27 18:22:00,
2013-01-27 10:27:00,38.1,18.7,30.27,NW,315,2.7,2.7,45,0.00,,---,0.00,VWS V13.01,2013-01-27 18:27:00,
2013-01-27 10:32:00,38.3,18.3,30.27,North,0,4.9,4.9,44,0.00,,---,0.00,VWS V13.01,2013-01-27 18:32:00,
2013-01-27 10:37:00,37.6,17.7,30.27,East,90,4.9,6.3,44,0.00,,---,0.00,VWS V13.01,2013-01-27 18:37:00,
2013-01-27 10:42:00,38.8,18.8,30.27,NE,45,4.0,4.9,44,0.00,,---,0.00,VWS V13.01,2013-01-27 18:42:00,
2013-01-27 10:47:00,37.9,18.0,30.27,North,0,0.0,3.1,44,0.00,,---,0.00,VWS V13.01,2013-01-27 18:47:00,
2013-01-27 10:52:00,37.6,17.7,30.27,North,0,3.1,4.5,44,0.00,,---,0.00,VWS V13.01,2013-01-27 18:52:00,
2013-01-27 10:57:00,37.4,17.5,30.27,NE,45,3.1,5.4,44,0.00,,---,0.00,VWS V13.01,2013-01-27 18:57:00,
2013-01-27 11:02:00,36.7,17.4,30.27,NE,45,0.0,2.2,45,0.00,,---,0.00,VWS V13.01,2013-01-27 19:02:00,
2013-01-27 11:07:00,36.1,16.9,30.27,NW,315,4.0,4.0,45,0.00,,---,0.00,VWS V13.01,2013-01-27 19:07:00,
2013-01-27 11:12:00,35.8,16.5,30.27,North,0,4.0,5.8,45,0.00,,---,0.00,VWS V13.01,2013-01-27 19:12:00,
2013-01-27 11:17:00,35.8,16.5,30.27,NNW,338,2.2,3.6,45,0.00,,---,0.00,VWS V13.01,2013-01-27 19:17:00,
2013-01-27 11:22:00,36.3,17.5,30.27,NE,45,4.9,6.3,46,0.00,,---,0.00,VWS V13.01,2013-01-27 19:22:00,
2013-01-27 11:27:00,36.3,17.5,30.27,NE,45,5.8,5.8,46,0.00,,---,0.00,VWS V13.01,2013-01-27 19:27:00,
2013-01-27 11:32:00,36.5,17.2,30.27,NNE,22,4.0,6.3,45,0.00,,---,0.00,VWS V13.01,2013-01-27 19:32:00,
2013-01-27 11:37:00,37.4,18.0,30.27,WNW,292,2.2,2.7,45,0.00,,---,0.00,VWS V13.01,2013-01-27 19:37:00,
2013-01-27 11:42:00,38.7,18.1,30.27,WNW,292,2.7,2.7,43,0.00,,---,0.00,VWS V13.01,2013-01-27 19:42:00,
2013-01-27 11:47:00,39.0,18.4,30.27,SW,225,2.7,3.6,43,0.00,,---,0.00,VWS V13.01,2013-01-27 19:47:00,
2013-01-27 11:52:00,40.1,18.9,30.27,SW,225,0.0,2.7,42,0.00,,---,0.00,VWS V13.01,2013-01-27 19:52:00,
2013-01-27 11:57:00,40.8,19.0,30.27,WNW,292,4.0,5.4,41,0.00,,---,0.00,VWS V13.01,2013-01-27 19:57:00,
2013-01-27 12:02:00,41.4,19.5,30.27,NW,315,0.0,0.0,41,0.00,,---,0.00,VWS V13.01,2013-01-27 20:02:00,
2013-01-27 12:07:00,41.0,18.5,30.27,NW,315,2.7,2.7,40,0.00,,---,0.00,VWS V13.01,2013-01-27 20:07:00,
2013-01-27 12:12:00,41.7,19.2,30.27,NW,315,0.0,0.0,40,0.00,,---,0.00,VWS V13.01,2013-01-27 20:12:00,
2013-01-27 12:17:00,42.8,19.6,30.27,NW,315,0.0,0.0,39,0.00,,---,0.00,VWS V13.01,2013-01-27 20:17:00,
2013-01-27 12:22:00,41.5,18.4,30.27,NE,45,6.3,6.3,39,0.00,,---,0.00,VWS V13.01,2013-01-27 20:22:00,
2013-01-27 12:27:00,41.2,18.1,30.27,North,0,2.7,4.0,39,0.00,,---,0.00,VWS V13.01,2013-01-27 20:27:00,
2013-01-27 12:32:00,40.6,18.2,30.27,North,0,0.0,0.0,40,0.00,,---,0.00,VWS V13.01,2013-01-27 20:32:00,
2013-01-27 12:37:00,41.7,18.6,30.24,SW,225,4.0,4.9,39,0.00,,---,0.00,VWS V13.01,2013-01-27 20:37:00,
2013-01-27 12:42:00,40.6,17.6,30.24,North,0,2.7,3.1,39,0.00,,---,0.00,VWS V13.01,2013-01-27 20:42:00,
2013-01-27 12:47:00,40.6,17.6,30.24,NNE,22,2.7,4.9,39,0.00,,---,0.00,VWS V13.01,2013-01-27 20:47:00,
2013-01-27 12:52:00,40.5,17.5,30.24,North,0,3.1,3.1,39,0.00,,---,0.00,VWS V13.01,2013-01-27 20:52:00,
2013-01-27 12:57:00,39.2,16.3,30.24,NNE,22,4.0,4.9,39,0.00,,---,0.00,VWS V13.01,2013-01-27 20:57:00,
2013-01-27 13:02:00,38.8,16.0,30.24,NNE,22,0.0,2.7,39,0.00,,---,0.00,VWS V13.01,2013-01-27 21:02:00,
2013-01-27 13:07:00,38.7,15.9,30.24,NNE,22,0.0,0.0,39,0.00,,---,0.00,VWS V13.01,2013-01-27 21:07:00,
2013-01-27 13:12:00,39.0,16.2,30.24,NNE,22,0.0,0.0,39,0.00,,---,0.00,VWS V13.01,2013-01-27 21:12:00,
2013-01-27 13:17:00,38.8,16.0,30.24,NNE,22,2.2,3.1,39,0.00,,---,0.00,VWS V13.01,2013-01-27 21:17:00,
2013-01-27 13:22:00,38.1,15.9,30.24,NNE,22,2.7,2.7,40,0.00,,---,0.00,VWS V13.01,2013-01-27 21:22:00,
2013-01-27 13:27:00,37.9,16.4,30.24,NNE,22,0.0,2.7,41,0.00,,---,0.00,VWS V13.01,2013-01-27 21:27:00,
2013-01-27 13:32:00,37.8,15.6,30.24,NW,315,0.0,2.2,40,0.00,,---,0.00,VWS V13.01,2013-01-27 21:32:00,
2013-01-27 13:37:00,37.9,15.8,30.24,NW,315,0.0,0.0,40,0.00,,---,0.00,VWS V13.01,2013-01-27 21:37:00,
2013-01-27 13:42:00,37.9,15.8,30.24,NW,315,0.0,0.0,40,0.00,,---,0.00,VWS V13.01,2013-01-27 21:42:00,
2013-01-27 13:47:00,38.1,16.5,30.24,NW,315,2.2,3.1,41,0.00,,---,0.00,VWS V13.01,2013-01-27 21:47:00,
2013-01-27 13:52:00,37.9,16.4,30.24,NW,315,0.0,0.0,41,0.00,,---,0.00,VWS V13.01,2013-01-27 21:52:00,
2013-01-27 13:57:00,38.1,16.5,30.24,NW,315,2.2,2.7,41,0.00,,---,0.00,VWS V13.01,2013-01-27 21:57:00,
2013-01-27 14:02:00,37.9,16.4,30.24,NE,45,3.1,3.6,41,0.00,,---,0.00,VWS V13.01,2013-01-27 22:02:00,
2013-01-27 14:07:00,37.4,15.3,30.24,North,0,3.1,4.0,40,0.00,,---,0.00,VWS V13.01,2013-01-27 22:07:00,
2013-01-27 14:12:00,37.0,15.0,30.24,North,0,2.2,4.0,40,0.00,,---,0.00,VWS V13.01,2013-01-27 22:12:00,
2013-01-27 14:17:00,37.0,15.0,30.24,NW,315,4.9,4.9,40,0.00,,---,0.00,VWS V13.01,2013-01-27 22:17:00,
2013-01-27 14:22:00,36.9,14.8,30.24,WNW,292,2.7,2.7,40,0.00,,---,0.00,VWS V13.01,2013-01-27 22:22:00,
2013-01-27 14:27:00,36.9,14.8,30.24,NNE,22,2.7,3.1,40,0.00,,---,0.00,VWS V13.01,2013-01-27 22:27:00,
2013-01-27 14:32:00,36.9,15.4,30.24,West,270,0.0,2.7,41,0.00,,---,0.00,VWS V13.01,2013-01-27 22:32:00,
2013-01-27 14:37:00,36.9,15.4,30.24,NW,315,0.0,0.0,41,0.00,,---,0.00,VWS V13.01,2013-01-27 22:37:00,
2013-01-27 14:42:00,36.9,15.4,30.24,North,0,2.2,3.1,41,0.00,,---,0.00,VWS V13.01,2013-01-27 22:42:00,
2013-01-27 14:47:00,36.7,15.2,30.24,North,0,2.7,3.1,41,0.00,,---,0.00,VWS V13.01,2013-01-27 22:47:00,
2013-01-27 14:52:00,36.7,15.2,30.24,NE,45,4.0,4.0,41,0.00,,---,0.00,VWS V13.01,2013-01-27 22:52:00,
2013-01-27 14:57:00,36.3,14.9,30.24,NE,45,3.1,4.0,41,0.00,,---,0.00,VWS V13.01,2013-01-27 22:57:00,
2013-01-27 15:02:00,36.3,14.9,30.24,NE,45,4.0,4.0,41,0.00,,---,0.00,VWS V13.01,2013-01-27 23:02:00,
2013-01-27 15:07:00,36.1,14.7,30.24,NE,45,2.2,3.6,41,0.00,,---,0.00,VWS V13.01,2013-01-27 23:07:00,
2013-01-27 15:12:00,36.1,14.7,30.24,NE,45,0.0,0.0,41,0.00,,---,0.00,VWS V13.01,2013-01-27 23:12:00,
2013-01-27 15:17:00,36.1,14.7,30.24,NE,45,0.0,0.0,41,0.00,,---,0.00,VWS V13.01,2013-01-27 23:17:00,
2013-01-27 15:22:00,36.0,14.6,30.24,NE,45,0.0,0.0,41,0.00,,---,0.00,VWS V13.01,2013-01-27 23:22:00,
2013-01-27 15:27:00,35.8,14.9,30.24,NE,45,0.0,0.0,42,0.00,,---,0.00,VWS V13.01,2013-01-27 23:27:00,
2013-01-27 15:32:00,35.8,14.9,30.24,NE,45,0.0,0.0,42,0.00,,---,0.00,VWS V13.01,2013-01-27 23:32:00,
2013-01-27 15:37:00,35.6,14.8,30.24,NE,45,0.0,2.2,42,0.00,,---,0.00,VWS V13.01,2013-01-27 23:37:00,
2013-01-27 15:42:00,35.6,15.3,30.24,NE,45,0.0,0.0,43,0.00,,---,0.00,VWS V13.01,2013-01-27 23:42:00,
2013-01-27 15:47:00,35.4,15.7,30.24,SW,225,0.0,2.2,44,0.00,,---,0.00,VWS V13.01,2013-01-27 23:47:00,
2013-01-27 15:52:00,35.4,15.7,30.24,SW,225,0.0,0.0,44,0.00,,---,0.00,VWS V13.01,2013-01-27 23:52:00,
2013-01-27 15:57:00,35.2,15.5,30.24,SW,225,0.0,0.0,44,0.00,,---,0.00,VWS V13.01,2013-01-27 23:57:00,
2013-01-27 16:02:00,35.1,15.9,30.24,SW,225,0.0,0.0,45,0.00,,---,0.00,VWS V13.01,2013-01-28 00:02:00,
2013-01-27 16:07:00,35.1,15.9,30.24,SW,225,0.0,0.0,45,0.00,,---,0.00,VWS V13.01,2013-01-28 00:07:00,
2013-01-27 16:12:00,34.9,15.7,30.24,SW,225,0.0,0.0,45,0.00,,---,0.00,VWS V13.01,2013-01-28 00:12:00,
2013-01-27 16:17:00,34.7,16.0,30.24,SW,225,0.0,0.0,46,0.00,,---,0.00,VWS V13.01,2013-01-28 00:17:00,
2013-01-27 16:22:00,34.5,16.4,30.24,SW,225,0.0,0.0,47,0.00,,---,0.00,VWS V13.01,2013-01-28 00:22:00,
2013-01-27 16:28:00,34.5,16.4,30.24,SW,225,0.0,0.0,47,0.00,,---,0.00,VWS V13.01,2013-01-28 00:28:00,
2013-01-27 16:33:00,34.3,16.7,30.24,SW,225,0.0,0.0,48,0.00,,---,0.00,VWS V13.01,2013-01-28 00:33:00,
2013-01-27 16:38:00,34.2,17.0,30.24,SW,225,0.0,0.0,49,0.00,,---,0.00,VWS V13.01,2013-01-28 00:38:00,
2013-01-27 16:43:00,34.2,17.0,30.24,SW,225,0.0,0.0,49,0.00,,---,0.00,VWS V13.01,2013-01-28 00:43:00,
2013-01-27 16:48:00,34.0,17.3,30.24,SW,225,0.0,0.0,50,0.00,,---,0.00,VWS V13.01,2013-01-28 00:48:00,
2013-01-27 16:53:00,34.0,17.3,30.24,SW,225,0.0,0.0,50,0.00,,---,0.00,VWS V13.01,2013-01-28 00:53:00,
2013-01-27 16:58:00,33.8,17.1,30.24,SW,225,0.0,0.0,50,0.00,,---,0.00,VWS V13.01,2013-01-28 00:58:00,
2013-01-27 17:03:00,33.6,17.4,30.24,SW,225,0.0,0.0,51,0.00,,---,0.00,VWS V13.01,2013-01-28 01:03:00,
2013-01-27 17:08:00,33.8,18.0,30.24,SW,225,0.0,0.0,52,0.00,,---,0.00,VWS V13.01,2013-01-28 01:08:00,
2013-01-27 17:12:00,33.8,18.9,30.24,SW,225,2.2,2.2,54,0.00,,---,0.00,VWS V13.01,2013-01-28 01:12:00,
2013-01-27 17:17:00,33.8,18.9,30.24,SW,225,0.0,0.0,54,0.00,,---,0.00,VWS V13.01,2013-01-28 01:17:00,
2013-01-27 17:22:00,33.6,19.2,30.24,SW,225,0.0,0.0,55,0.00,,---,0.00,VWS V13.01,2013-01-28 01:22:00,
2013-01-27 17:27:00,33.8,19.4,30.24,SW,225,0.0,0.0,55,0.00,,---,0.00,VWS V13.01,2013-01-28 01:27:00,
2013-01-27 17:32:00,33.6,19.6,30.24,SW,225,0.0,0.0,56,0.00,,---,0.00,VWS V13.01,2013-01-28 01:32:00,
2013-01-27 17:37:00,33.4,19.4,30.21,SW,225,0.0,0.0,56,0.00,,---,0.00,VWS V13.01,2013-01-28 01:37:00,
2013-01-27 17:42:00,33.4,19.4,30.21,SW,225,0.0,2.7,56,0.00,,---,0.00,VWS V13.01,2013-01-28 01:42:00,
2013-01-27 17:47:00,33.6,19.6,30.21,SW,225,0.0,0.0,56,0.00,,---,0.00,VWS V13.01,2013-01-28 01:47:00,
2013-01-27 17:52:00,33.6,20.0,30.24,SW,225,0.0,2.2,57,0.00,,---,0.00,VWS V13.01,2013-01-28 01:52:00,
2013-01-27 17:57:00,33.6,20.4,30.24,SW,225,4.5,5.4,58,0.00,,---,0.00,VWS V13.01,2013-01-28 01:57:00,
2013-01-27 18:02:00,33.6,20.4,30.24,SW,225,0.0,4.0,58,0.00,,---,0.00,VWS V13.01,2013-01-28 02:02:00,
2013-01-27 18:07:00,33.6,20.4,30.24,SW,225,0.0,0.0,58,0.00,,---,0.00,VWS V13.01,2013-01-28 02:07:00,
2013-01-27 18:12:00,33.6,20.8,30.24,SW,225,0.0,2.7,59,0.00,,---,0.00,VWS V13.01,2013-01-28 02:12:00,
2013-01-27 18:17:00,33.8,21.0,30.24,SW,225,2.2,2.7,59,0.00,,---,0.00,VWS V13.01,2013-01-28 02:17:00,
2013-01-27 18:22:00,33.8,21.0,30.24,SW,225,3.1,3.1,59,0.00,,---,0.00,VWS V13.01,2013-01-28 02:22:00,
2013-01-27 18:27:00,33.8,21.0,30.24,SW,225,2.2,2.2,59,0.00,,---,0.00,VWS V13.01,2013-01-28 02:27:00,
2013-01-27 18:32:00,33.8,21.0,30.24,SW,225,3.1,4.0,59,0.00,,---,0.00,VWS V13.01,2013-01-28 02:32:00,
2013-01-27 18:37:00,33.8,21.0,30.21,SW,225,4.0,5.8,59,0.00,,---,0.00,VWS V13.01,2013-01-28 02:37:00,
2013-01-27 18:42:00,33.8,21.0,30.21,SW,225,2.2,3.6,59,0.00,,---,0.00,VWS V13.01,2013-01-28 02:42:00,
2013-01-27 18:47:00,33.8,21.0,30.21,SW,225,2.7,3.6,59,0.00,,---,0.00,VWS V13.01,2013-01-28 02:47:00,
2013-01-27 18:52:00,33.6,21.2,30.24,SW,225,5.4,6.3,60,0.00,,---,0.00,VWS V13.01,2013-01-28 02:52:00,
2013-01-27 18:57:00,33.8,21.4,30.24,SW,225,2.7,6.7,60,0.00,,---,0.00,VWS V13.01,2013-01-28 02:57:00,
2013-01-27 19:02:00,33.6,21.6,30.24,SW,225,2.7,4.9,61,0.00,,---,0.00,VWS V13.01,2013-01-28 03:02:00,
2013-01-27 19:07:00,33.6,22.0,30.21,SW,225,3.1,5.8,62,0.00,,---,0.00,VWS V13.01,2013-01-28 03:07:00,
2013-01-27 19:12:00,33.3,22.0,30.21,SW,225,3.6,6.3,63,0.00,,---,0.00,VWS V13.01,2013-01-28 03:12:00,
2013-01-27 19:17:00,33.3,22.0,30.21,SW,225,4.9,4.9,63,0.00,,---,0.00,VWS V13.01,2013-01-28 03:17:00,
2013-01-27 19:22:00,33.3,22.0,30.21,SW,225,3.6,5.4,63,0.00,,---,0.00,VWS V13.01,2013-01-28 03:22:00,
2013-01-27 19:27:00,33.1,22.2,30.21,SW,225,4.0,4.9,64,0.00,,---,0.00,VWS V13.01,2013-01-28 03:27:00,
2013-01-27 19:32:00,33.1,22.2,30.21,SW,225,4.0,8.1,64,0.00,,---,0.00,VWS V13.01,2013-01-28 03:32:00,
2013-01-27 19:37:00,33.3,22.0,30.21,SW,225,4.0,4.9,63,0.00,,---,0.00,VWS V13.01,2013-01-28 03:37:00,
2013-01-27 19:42:00,33.3,22.0,30.21,West,270,4.9,4.9,63,0.00,,---,0.00,VWS V13.01,2013-01-28 03:42:00,
2013-01-27 19:47:00,33.1,21.9,30.21,SW,225,0.0,3.1,63,0.00,,---,0.00,VWS V13.01,2013-01-28 03:47:00,
2013-01-27 19:52:00,33.1,21.9,30.21,SW,225,5.4,5.4,63,0.00,,---,0.00,VWS V13.01,2013-01-28 03:52:00,
2013-01-27 19:57:00,33.1,21.9,30.21,SW,225,2.7,3.1,63,0.00,,---,0.00,VWS V13.01,2013-01-28 03:57:00,
2013-01-27 20:02:00,33.1,21.9,30.21,SW,225,0.0,4.0,63,0.00,,---,0.00,VWS V13.01,2013-01-28 04:02:00,
2013-01-27 20:07:00,33.1,21.9,30.21,SW,225,4.9,5.8,63,0.00,,---,0.00,VWS V13.01,2013-01-28 04:07:00,
2013-01-27 20:12:00,33.3,21.7,30.21,SW,225,5.8,5.8,62,0.00,,---,0.00,VWS V13.01,2013-01-28 04:12:00,
2013-01-27 20:17:00,33.3,21.7,30.21,SW,225,4.9,5.4,62,0.00,,---,0.00,VWS V13.01,2013-01-28 04:17:00,
2013-01-27 20:22:00,33.1,21.5,30.21,SW,225,0.0,2.7,62,0.00,,---,0.00,VWS V13.01,2013-01-28 04:22:00,
2013-01-27 20:27:00,33.1,21.9,30.21,West,270,4.9,6.7,63,0.00,,---,0.00,VWS V13.01,2013-01-28 04:27:00,
2013-01-27 20:32:00,33.1,21.9,30.21,WSW,248,4.9,8.7,63,0.00,,---,0.00,VWS V13.01,2013-01-28 04:32:00,
2013-01-27 20:37:00,33.1,21.9,30.21,SW,225,3.1,5.8,63,0.00,,---,0.00,VWS V13.01,2013-01-28 04:37:00,
2013-01-27 20:42:00,33.3,22.0,30.21,SW,225,10.5,10.5,63,0.00,,---,0.00,VWS V13.01,2013-01-28 04:42:00,
2013-01-27 20:47:00,33.3,22.0,30.21,SW,225,4.0,4.0,63,0.00,,---,0.00,VWS V13.01,2013-01-28 04:47:00,
2013-01-27 20:53:00,33.4,22.2,30.21,SW,225,4.0,5.8,63,0.00,,---,0.00,VWS V13.01,2013-01-28 04:53:00,
2013-01-27 20:58:00,33.4,22.2,30.21,SW,225,5.4,5.4,63,0.00,,---,0.00,VWS V13.01,2013-01-28 04:58:00,
2013-01-27 21:00:00,33.4,22.2,30.21,SW,225,4.9,5.4,63,0.00,,---,0.00,VWS V13.01,2013-01-28 05:00:00,
2013-01-27 21:01:00,33.4,22.2,30.21,South,180,5.8,6.7,63,0.00,,---,0.00,VWS V13.01,2013-01-28 05:01:00,
2013-01-27 21:06:00,33.4,22.2,30.21,SW,225,3.6,9.2,63,0.00,,---,0.00,VWS V13.01,2013-01-28 05:06:00,
2013-01-27 21:11:00,33.4,22.2,30.21,SW,225,5.4,5.8,63,0.00,,---,0.00,VWS V13.01,2013-01-28 05:11:00,
2013-01-27 21:16:00,33.6,22.0,30.21,West,270,3.6,4.9,62,0.00,,---,0.00,VWS V13.01,2013-01-28 05:16:00,
2013-01-27 21:22:00,33.6,22.0,30.21,SW,225,2.2,3.6,62,0.00,,---,0.00,VWS V13.01,2013-01-28 05:22:00,
2013-01-27 21:26:00,33.6,22.0,30.21,SW,225,4.9,5.4,62,0.00,,---,0.00,VWS V13.01,2013-01-28 05:26:00,
2013-01-27 21:32:00,33.6,22.0,30.21,SW,225,3.1,3.1,62,0.00,,---,0.00,VWS V13.01,2013-01-28 05:32:00,
2013-01-27 21:36:00,33.6,22.0,30.21,SW,225,2.7,3.6,62,0.00,,---,0.00,VWS V13.01,2013-01-28 05:36:00,
2013-01-27 21:41:00,33.6,22.0,30.21,SW,225,4.0,4.0,62,0.00,,---,0.00,VWS V13.01,2013-01-28 05:41:00,
2013-01-27 21:46:00,33.6,22.0,30.21,West,270,5.4,5.4,62,0.00,,---,0.00,VWS V13.01,2013-01-28 05:46:00,
2013-01-27 21:51:00,33.4,22.6,30.21,SW,225,2.2,4.0,64,0.00,,---,0.00,VWS V13.01,2013-01-28 05:51:00,
2013-01-27 21:56:00,33.4,22.6,30.21,WSW,248,4.0,4.0,64,0.00,,---,0.00,VWS V13.01,2013-01-28 05:56:00,
2013-01-27 22:01:00,33.4,22.6,30.21,SW,225,5.8,5.8,64,0.00,,---,0.00,VWS V13.01,2013-01-28 06:01:00,
2013-01-27 22:06:00,33.4,23.0,30.21,SW,225,5.8,5.8,65,0.00,,---,0.00,VWS V13.01,2013-01-28 06:06:00,
2013-01-27 22:11:00,33.4,23.0,30.21,SW,225,3.1,4.5,65,0.00,,---,0.00,VWS V13.01,2013-01-28 06:11:00,
2013-01-27 22:16:00,33.3,23.1,30.21,SW,225,4.0,4.5,66,0.00,,---,0.00,VWS V13.01,2013-01-28 06:16:00,
2013-01-27 22:21:00,33.1,23.3,30.21,SW,225,3.6,6.3,67,0.00,,---,0.00,VWS V13.01,2013-01-28 06:21:00,
2013-01-27 22:26:00,33.1,23.7,30.21,SW,225,3.6,5.4,68,0.00,,---,0.00,VWS V13.01,2013-01-28 06:26:00,
2013-01-27 22:31:00,33.1,24.0,30.21,SW,225,0.0,3.6,69,0.00,,---,0.00,VWS V13.01,2013-01-28 06:31:00,
2013-01-27 22:36:00,33.1,24.0,30.21,SW,225,0.0,2.2,69,0.00,,---,0.00,VWS V13.01,2013-01-28 06:36:00,
2013-01-27 22:41:00,32.9,23.9,30.21,SW,225,0.0,0.0,69,0.00,,---,0.00,VWS V13.01,2013-01-28 06:41:00,
2013-01-27 22:46:00,32.9,23.9,30.21,SW,225,0.0,2.7,69,0.00,,---,0.00,VWS V13.01,2013-01-28 06:46:00,
2013-01-27 22:51:00,33.1,23.7,30.21,SW,225,0.0,0.0,68,0.00,,---,0.00,VWS V13.01,2013-01-28 06:51:00,
2013-01-27 22:56:00,33.1,23.7,30.21,SW,225,2.2,3.1,68,0.00,,---,0.00,VWS V13.01,2013-01-28 06:56:00,
2013-01-27 23:01:00,33.1,23.3,30.21,SW,225,3.1,3.1,67,0.00,,---,0.00,VWS V13.01,2013-01-28 07:01:00,
2013-01-27 23:06:00,33.1,23.7,30.21,SW,225,2.7,3.1,68,0.00,,---,0.00,VWS V13.01,2013-01-28 07:06:00,
2013-01-27 23:11:00,33.1,23.3,30.21,SW,225,5.4,5.4,67,0.00,,---,0.00,VWS V13.01,2013-01-28 07:11:00,
2013-01-27 23:16:00,33.3,23.5,30.21,SW,225,4.0,5.8,67,0.00,,---,0.00,VWS V13.01,2013-01-28 07:16:00,
2013-01-27 23:21:00,33.3,23.5,30.21,SW,225,5.4,5.4,67,0.00,,---,0.00,VWS V13.01,2013-01-28 07:21:00,
2013-01-27 23:26:00,33.3,23.9,30.21,WSW,248,3.6,3.6,68,0.00,,---,0.00,VWS V13.01,2013-01-28 07:26:00,
2013-01-27 23:31:00,33.3,23.9,30.21,WSW,248,2.7,4.0,68,0.00,,---,0.00,VWS V13.01,2013-01-28 07:31:00,
2013-01-27 23:36:00,33.1,23.7,30.21,WSW,248,2.7,3.6,68,0.00,,---,0.00,VWS V13.01,2013-01-28 07:36:00,
2013-01-27 23:41:00,33.1,23.3,30.21,WSW,248,0.0,2.2,67,0.00,,---,0.00,VWS V13.01,2013-01-28 07:41:00,
2013-01-27 23:46:00,33.1,23.7,30.21,SW,225,4.0,5.4,68,0.00,,---,0.00,VWS V13.01,2013-01-28 07:46:00,
2013-01-27 23:51:00,33.1,23.3,30.21,SW,225,2.7,2.7,67,0.00,,---,0.00,VWS V13.01,2013-01-28 07:51:00,
2013-01-27 23:56:00,33.1,23.3,30.21,SW,225,2.7,2.7,67,0.00,,---,0.00,VWS V13.01,2013-01-28 07:56:00,